Weather History for Lincoln, NE

Change the Weather History Date:

Sunday, October 7, 2012

  Actual Average Record
Temperature  
Mean Temperature 39 °F 57 °F  
Max Temperature 57 °F 70 °F 90 °F (1897)
Min Temperature 21 °F 44 °F 20 °F (2000)
Degree Days  
Heating Degree Days 26 9  
Month to date heating degree days 116 57  
Since 1 July heating degree days 226 155  
Cooling Degree Days 0 1  
Month to date cooling degree days 0 7  
Year to date cooling degree days 1491 1165  
Moisture  
Dew Point 24 °F    
Average Humidity 60    
Maximum Humidity 92    
Minimum Humidity 27    
Precipitation  
Precipitation 0.00 in 0.07 in 1.18 in (1977)
Month to date precipitation T 0.53  
Year to date precipitation 15.57 25.13  
Snow  
Snow 0.00 in 0.00 in - ()
Month to date snowfall 0.0 0.0  
Since 1 July snowfall 0.0 T  
Snow Depth 0.00 in    
Sea Level Pressure  
Sea Level Pressure 30.22 in    
Wind  
Wind Speed 8 mph (SW)    
Max Wind Speed 23 mph    
Max Gust Speed 28 mph    
Visibility 10 miles    
Events      
T = Trace of Precipitation, MM = Missing Value Source: NWS Daily Summary

Daily Weather History Graph

Daily Weather History Graph

Search for Another Location

Airport:

Trip Planner

Search our weather history database for the weather conditions in past years. The results will help you decide how hot, cold, wet, or windy it might be!

Date:

Astronomy

Oct. 07, 2012 Rise Set
Actual Time 7:30 AM CDT 6:58 PM CDT
Civil Twilight 7:02 AM CDT 7:25 PM CDT
Nautical Twilight 6:31 AM CDT 7:57 PM CDT
Astronomical Twilight 5:59 AM CDT 8:29 PM CDT
Moon No Moon Rise 2:10 PM CDT (10/7)
Length of Visible Light 12h 22m
Length of Day
11h 28m
Waning Gibbous, 56% of the Moon is Illuminated
Oct 7
Waning Gibbous
Oct 8
Last Quarter
Oct 15
New
Oct 21
First Quarter
Oct 29
Full

Hourly Weather History & Observations

Time (CDT) Temp. Windchill Dew Point Humidity Pressure Visibility Wind Dir Wind Speed Gust Speed Precip Events Conditions
12:54 AM 28.0 °F - 21.0 °F 75% 30.36 in 10.0 mi Calm Calm - N/A   Clear
1:54 AM 28.0 °F - 21.0 °F 75% 30.36 in 10.0 mi Calm Calm - N/A   Clear
2:54 AM 27.0 °F - 19.9 °F 75% 30.35 in 10.0 mi Calm Calm - N/A   Clear
3:54 AM 25.0 °F 20.7 °F 19.0 °F 78% 30.33 in 10.0 mi South 3.5 mph - N/A   Clear
4:54 AM 27.0 °F - 19.0 °F 72% 30.32 in 10.0 mi Calm Calm - N/A   Clear
5:54 AM 25.0 °F - 19.9 °F 81% 30.32 in 10.0 mi Calm Calm - N/A   Clear
6:54 AM 24.1 °F - 19.9 °F 84% 30.32 in 10.0 mi Calm Calm - N/A   Clear
7:54 AM 21.9 °F 17.2 °F 19.0 °F 89% 30.33 in 8.0 mi South 3.5 mph - N/A   Clear
8:54 AM 28.0 °F 22.8 °F 24.1 °F 85% 30.33 in 9.0 mi WSW 4.6 mph - N/A   Clear
9:54 AM 36.0 °F 33.3 °F 28.0 °F 73% 30.32 in 10.0 mi Variable 3.5 mph - N/A   Clear
10:54 AM 46.0 °F 41.9 °F 28.9 °F 51% 30.30 in 10.0 mi West 8.1 mph - N/A   Clear
11:54 AM 50.0 °F - 27.0 °F 41% 30.26 in 10.0 mi WSW 11.5 mph - N/A   Clear
12:54 PM 53.1 °F - 25.0 °F 34% 30.23 in 10.0 mi WSW 13.8 mph 21.9 mph N/A   Clear
1:54 PM 55.0 °F - 24.1 °F 30% 30.19 in 10.0 mi WSW 17.3 mph 25.3 mph N/A   Partly Cloudy
2:54 PM 55.9 °F - 23.0 °F 28% 30.15 in 10.0 mi West 16.1 mph - N/A   Clear
3:54 PM 55.9 °F - 24.1 °F 29% 30.13 in 10.0 mi WSW 17.3 mph 26.5 mph N/A   Clear
4:54 PM 55.0 °F - 24.1 °F 30% 30.11 in 10.0 mi WSW 16.1 mph 26.5 mph N/A   Clear
5:54 PM 55.0 °F - 24.1 °F 30% 30.10 in 10.0 mi SW 18.4 mph 23.0 mph N/A   Clear
6:54 PM 52.0 °F - 25.0 °F 35% 30.09 in 10.0 mi SSW 9.2 mph - N/A   Clear
7:54 PM 43.0 °F 38.2 °F 25.0 °F 49% 30.10 in 10.0 mi South 8.1 mph - N/A   Clear
8:54 PM 45.0 °F 40.1 °F 26.1 °F 48% 30.10 in 10.0 mi SSW 9.2 mph - N/A   Clear
9:54 PM 44.1 °F 39.5 °F 27.0 °F 51% 30.09 in 10.0 mi SSW 8.1 mph - N/A   Clear
10:54 PM 45.0 °F 39.7 °F 28.9 °F 53% 30.07 in 10.0 mi SSW 10.4 mph - N/A   Clear
11:54 PM 44.1 °F 39.0 °F 30.9 °F 60% 30.06 in 10.0 mi SSW 9.2 mph - N/A   Clear